Regional Weather Roundup
Issued by NWS

Home | Current Version | Previous Version | Graphics & Text | Print | Product List | Glossary On
Versions: 1 2 3 4 5 6 7 8 9 10 11 12 13 14 15 16 17 18 19 20 21 22 23 24 25 26 27
000
ASUS45 KBOU 232206
RWRCO

WEATHER ROUNDUP FOR COLORADO
NATIONAL WEATHER SERVICE DENVER/BOULDER CO
400 PM MDT WED APR 23 2014

NOTE: "FAIR" INDICATES FEW OR NO CLOUDS BELOW 12000 FEET WITH NO
SIGNIFICANT WEATHER AND/OR OBSTRUCTIONS TO VISIBILITY.

COZ001>005-013-030-031-232300-
...NORTHWEST COLORADO...

CITY           SKY/WX    TMP DP  RH WIND       PRES   REMARKS
CRAIG          CLOUDY    45  22  40 SW8G25    29.91S
HAYDEN         CLOUDY    43  23  45 NW12      29.92F
MEEKER         CLOUDY    49  12  22 NW13G18   29.90S
MOUNT WERNER   CLOUDY   N/A N/A N/A W15G28    29.94R VSB<1/4
STEAMBOAT SPGS CLOUDY    44  24  44 W14G25    29.89S
WALDEN         CLOUDY    41  21  45 W16G23    29.86S
$$

COZ006>008-011-232300-
...WEST CENTRAL VALLEYS...

CITY           SKY/WX    TMP DP  RH WIND       PRES   REMARKS
GRAND JUNCTION CLOUDY    57  10  15 W22G29    29.87S
MONTROSE       CLOUDY    56  17  21 NW17      29.87R
EAGLE          CLOUDY    55  18  22 W18G31    29.83S
RIFLE          CLOUDY    56  18  22 W18G25    29.84R
DELTA          NOT AVBL
NUCLA          NOT AVBL
$$

COZ017>023-064>068-232300-
...SOUTHWEST COLORADO...

CITY           SKY/WX    TMP DP  RH WIND       PRES   REMARKS
DURANGO        CLOUDY    55   6  14 W20G33    29.87R
CORTEZ         PTSUNNY   58  11  15 SW13G30   29.89R
PAGOSA SPRINGS CLOUDY    54   6  14 W17       29.87S
TELLURIDE      CLOUDY    41  19  42 W8        29.95S
WOLF CREEK PAS CLOUDY    30  10  43 SW23G47   29.97S WCI  17
$$

COZ009-010-012-014-032>034-037-058>063-232300-
...CENTRAL COLORADO...

CITY           SKY/WX    TMP DP  RH WIND       PRES   REMARKS
ASPEN          CLOUDY    48  18  30 N18G26    29.85R
BUENA VISTA    CLOUDY    53  15  22 W29G36    29.77R
COPPER MTN     CLOUDY    36   9  32 W18G30    29.93F
BERTHOUD PASS  PTSUNNY   30  19  64 W24G30    29.94S WCI  16
COTTONWOOD PAS CLOUDY    45  14  29 W16G32    29.87R
GUNNISON       CLOUDY    48  14  25 W18G28    29.89R
KREMMLING      CLOUDY    46  27  46 NW14G25   29.86R
LEADVILLE      CLOUDY    40   8  26 W10G22    29.85F
MONARCH PASS   MIX PCPN  30  19  64 W41G47    30.04F WCI  13
SALIDA         CLOUDY    56  19  24 W22G30    29.84R
SUNLIGHT       CLOUDY    34  19  55 S3        29.96R
WILKERSON PASS PTSUNNY   43  12  28 SW7       29.90F
$$

COZ069>075-232300-
...SAN LUIS VALLEY/SANGRE DE CRISTO MOUNTAINS...

CITY           SKY/WX    TMP DP  RH WIND       PRES   REMARKS
ALAMOSA        MOSUNNY   62  19  19 SW24G33   29.77F
LA VETA PASS   PTSUNNY   46  19  34 SW17G28   29.84F
SAGUACHE       CLOUDY    52  23  32 N25G33    29.81R
$$

COZ035-036-038>040-232300-
...NORTHERN COLORADO FRONT RANGE...

CITY           SKY/WX    TMP DP  RH WIND       PRES   REMARKS
DENVER INTL AP CLOUDY    67  27  22 N15       29.60S
DMNS CITY PARK   N/A     67  27  22 N14G20    29.58S
AURORA         PTSUNNY   66  32  28 N16       29.61S
FRONT RANGE AP PTSUNNY   72  32  23 E17G23    29.61
ERIE MUNI ARPT CLOUDY    69  24  19 W14       29.58F
BOULDER MUN AP CLOUDY    64  23  20 W15G29    29.58F
CENTENNIAL     CLOUDY    69  18  14 SW10      29.60F
BROOMFIELD     PTSUNNY   66  28  24 W13G21    29.60F
FORT COLLINS   CLOUDY    64  28  25 NW6       29.61F
LONGMONT       NOT AVBL
$$

COZ041-046-047-076>085-087-088-232300-
...PIKES PEAK/PALMER DIVIDE AND SOUTHERN FOOTHILLS...

CITY           SKY/WX    TMP DP  RH WIND       PRES   REMARKS
COLO. SPRINGS  CLOUDY    70  17  13 SW15      29.62F
A. F. ACADEMY  CLOUDY    68  16  13 W9G22     29.63F
ELLICOTT       NOT AVBL
FALCON         CLOUDY    66  17  15 SW15G22   29.66F
FORT CARSON    CLOUDY    70  19  14 SW17      29.60F
LIMON          CLOUDY    67  34  29 NE24G31   29.57F
MONUMENT HILL  CLOUDY    63  19  19 CALM      29.67S
TRINIDAD       MOSUNNY   75  16  10 SW23G35   29.63F
$$

COZ042>045-048>051-090-091-232300-
...NORTHEAST COLORADO...

CITY           SKY/WX    TMP DP  RH WIND       PRES   REMARKS
GREELEY ARPT   CLOUDY    68  28  22 E22       29.60S
AKRON          CLOUDY    65  32  29 N22G35    29.62R
BURLINGTON     MOSUNNY   77  37  23 NE20      29.54F
WRAY           MOSUNNY   75  31  19 N18G30    29.57F
STERLING       NOT AVBL
HOLYOKE        NOT AVBL
FORT MORGAN    NOT AVBL
$$

COZ086-089-092>099-232300-
...SOUTHEAST COLORADO...

CITY           SKY/WX    TMP DP  RH WIND       PRES   REMARKS
PUEBLO         CLOUDY    77  18  11 SW20G25   29.54S
LA JUNTA       SUNNY     84  15   7 SW26G32   29.50F
LAMAR          SUNNY     87  14   6 SW25G36   29.46F
SPRINGFIELD      N/A     83  14   7 S24G38    29.53F
$$



USA.gov is the U.S. government's official web portal to all federal, state and local government web resources and services.